DW0602 Weather Reports


Display with metric or nautical units.
time (UTC)temp
F
wind
direction
speed
MPH
gust
MPH
rain 1hr
in
rain 24hr
in
rain mn
in
humidity
%
barometer
mb
20260506003610 33 151 2.0 5.0 0.01 0.12 0.10 95 1011.6
20260506003104 34 115 2.0 5.0 0.01 0.12 0.10 95 1011.8
20260506003015 33 120 1.0 6.0 0.01 0.12 0.10 94 1012.3
20260506002557 34 127 2.0 5.0 0.01 0.12 0.10 95 1011.6
20260506002051 34 98 3.0 6.0 0.02 0.12 0.10 95 1011.5
20260506001546 34 86 3.0 6.0 0.02 0.12 0.10 95 1011.5
20260506001503 33 49 3.0 7.0 0.02 0.12 0.10 94 1012.0
20260506001040 34 83 2.0 5.0 0.02 0.12 0.10 95 1011.4
20260506000534 34 102 2.0 5.0 0.02 0.12 0.10 95 1011.1
20260506000028 34 80 3.0 6.0 0.02 0.12 0.10 95 1011.0
20260506000004 33 84 1.0 7.0 0.02 0.12 0.10 94 1011.6
20260505235521 33 94 4.0 6.0 0.02 0.12 0.10 95 1011.0
20260505235015 33 135 4.0 8.0 0.02 0.12 0.10 95 1010.9
20260505234510 33 113 4.0 9.0 0.02 0.12 0.10 94 1011.5
20260505234003 33 79 5.0 8.0 0.01 0.11 0.09 95 1010.8
20260505233457 34 109 4.0 8.0 0.01 0.11 0.09 95 1010.8
20260505233014 33 87 4.0 10.0 0.01 0.11 0.09 94 1011.4
20260505232445 34 109 5.0 9.0 0.01 0.11 0.09 95 1010.8
20260505231940 34 86 5.0 9.0 0.00 0.10 0.08 95 1010.8
20260505231526 34 53 6.0 10.0 0.00 0.10 0.08 94 1011.2
20260505231433 35 94 4.0 9.0 0.00 0.10 0.08 95 1010.7
20260505230421 35 101 5.0 10.0 0.00 0.10 0.08 95 1010.5
20260505230025 34 105 4.0 11.0 0.00 0.10 0.08 94 1011.1
20260505225409 35 120 4.0 9.0 0.01 0.10 0.08 95 1010.4
20260505224904 35 120 4.0 8.0 0.01 0.10 0.08 95 1010.4
20260505224506 34 78 4.0 10.0 0.01 0.10 0.08 94 1011.0
20260505224357 35 105 4.0 9.0 0.01 0.10 0.08 95 1010.4
20260505223851 35 90 4.0 9.0 0.01 0.10 0.08 95 1010.4
20260505223345 35 122 4.0 9.0 0.01 0.10 0.08 95 1010.3
20260505223014 34 73 3.0 11.0 0.01 0.10 0.08 94 1010.8
20260505222840 35 91 5.0 10.0 0.01 0.10 0.08 95 1010.2
20260505222334 34 72 5.0 10.0 0.01 0.10 0.08 95 1010.2
20260505221827 34 103 5.0 9.0 0.01 0.10 0.08 95 1010.3
20260505221518 34 154 5.0 10.0 0.01 0.10 0.08 94 1010.9
20260505221321 34 86 5.0 9.0 0.01 0.10 0.08 94 1010.4
20260505220816 35 93 5.0 9.0 0.01 0.10 0.08 95 1010.4
20260505220310 35 68 5.0 9.0 0.01 0.10 0.08 95 1010.4
20260505220017 34 91 4.0 10.0 0.01 0.10 0.08 94 1011.0
20260505215804 35 103 5.0 9.0 0.00 0.09 0.07 94 1010.5
20260505214751 35 98 5.0 10.0 0.00 0.09 0.07 94 1010.9
20260505214522 34 115 4.0 11.0 0.00 0.09 0.07 94 1011.5
20260505214245 34 129 5.0 10.0 0.00 0.09 0.07 94 1010.8
20260505213234 35 72 5.0 11.0 0.00 0.09 0.07 94 1011.0
20260505213006 34 82 4.0 12.0 0.00 0.09 0.07 94 1011.5
20260505212728 34 67 5.0 11.0 0.00 0.09 0.07 94 1010.9
20260505212221 35 93 5.0 9.0 0.00 0.09 0.07 94 1011.0
20260505211514 34 89 5.0 10.0 0.00 0.09 0.07 94 1011.7
20260505211209 35 65 4.0 10.0 0.00 0.09 0.07 94 1011.3
20260505210703 35 108 6.0 10.0 0.00 0.09 0.07 94 1011.3
20260505210024 34 110 5.0 11.0 0.00 0.09 0.07 93 1011.9
20260505205651 35 96 3.0 8.0 0.00 0.09 0.07 94 1011.4
20260505205145 35 134 4.0 9.0 0.00 0.09 0.07 94 1011.4
20260505204639 35 60 5.0 9.0 0.00 0.09 0.07 94 1011.3
20260505204523 34 131 4.0 10.0 0.00 0.09 0.07 93 1011.8
20260505204134 35 47 5.0 8.0 0.00 0.09 0.07 94 1011.4
20260505203628 35 138 5.0 12.0 0.00 0.09 0.07 94 1011.3
20260505203121 35 143 5.0 12.0 0.00 0.09 0.07 94 1011.3
20260505203028 35 128 6.0 13.0 0.00 0.09 0.07 93 1011.8
20260505202109 35 124 5.0 10.0 0.01 0.09 0.07 94 1011.3
20260505201603 35 118 4.0 9.0 0.01 0.09 0.07 94 1011.6
20260505201510 35 136 3.0 10.0 0.01 0.09 0.07 93 1012.1
20260505201057 35 122 4.0 9.0 0.01 0.09 0.07 94 1011.6
20260505200551 35 103 5.0 9.0 0.01 0.09 0.07 94 1011.6
20260505200045 35 148 5.0 8.0 0.01 0.09 0.07 94 1011.8
20260505200030 35 58 4.0 9.0 0.01 0.09 0.07 93 1012.3
20260505195033 35 117 4.0 9.0 0.01 0.09 0.07 94 1012.0
20260505194527 35 105 4.0 9.0 0.01 0.09 0.07 94 1012.0
20260505194520 35 74 3.0 10.0 0.01 0.09 0.07 93 1012.5
20260505193516 35 98 4.0 8.0 0.02 0.09 0.07 93 1012.1
20260505193021 35 102 3.0 9.0 0.02 0.09 0.07 93 1012.6
20260505193010 35 61 4.0 8.0 0.02 0.09 0.07 94 1012.1
20260505191957 35 111 6.0 10.0 0.01 0.08 0.06 93 1011.9
20260505191521 35 105 5.0 11.0 0.01 0.08 0.06 93 1012.4
20260505191451 35 95 5.0 10.0 0.01 0.08 0.06 93 1011.9
20260505190945 36 58 5.0 10.0 0.01 0.08 0.06 94 1011.9
20260505190439 36 105 5.0 10.0 0.01 0.08 0.06 93 1012.1
20260505190011 35 113 4.0 8.0 0.01 0.08 0.06 93 1012.7
20260505185933 36 120 4.0 7.0 0.01 0.08 0.06 94 1012.1
20260505185427 36 111 5.0 9.0 0.01 0.08 0.06 94 1012.1
20260505184921 36 82 4.0 9.0 0.02 0.08 0.06 94 1012.1
20260505184518 35 117 5.0 9.0 0.02 0.08 0.06 93 1012.7
20260505184415 36 96 4.0 8.0 0.02 0.08 0.06 94 1012.2
20260505183411 36 113 4.0 9.0 0.01 0.07 0.05 94 1012.2
20260505183022 36 99 4.0 11.0 0.01 0.07 0.05 93 1012.9
20260505182911 36 110 4.0 9.0 0.01 0.07 0.05 94 1012.4
20260505182411 36 111 4.0 8.0 0.01 0.07 0.05 94 1012.5
20260505181911 36 149 4.0 9.0 0.01 0.07 0.05 94 1012.5
20260505181526 35 117 2.0 11.0 0.01 0.07 0.05 93 1013.1
20260505181411 36 139 5.0 10.0 0.01 0.07 0.05 93 1012.6
20260505180910 36 116 5.0 11.0 0.01 0.07 0.05 93 1012.6
20260505180411 36 72 5.0 11.0 0.01 0.07 0.05 94 1012.6
20260505180023 35 98 5.0 12.0 0.01 0.07 0.05 93 1013.1
20260505175911 36 98 5.0 11.0 0.01 0.07 0.05 93 1012.7
20260505175411 36 103 6.0 11.0 0.02 0.07 0.05 93 1012.7
20260505174912 36 115 5.0 11.0 0.01 0.06 0.05 93 1012.7
20260505174512 36 115 5.0 12.0 0.01 0.06 0.04 92 1013.2
20260505174412 36 117 5.0 11.0 0.01 0.06 0.04 93 1012.6
20260505173412 37 105 4.0 8.0 0.01 0.06 0.04 93 1012.7
20260505173017 36 93 5.0 9.0 0.01 0.06 0.04 93 1013.3
20260505172913 37 88 4.0 8.0 0.02 0.06 0.04 93 1012.9
20260505172413 37 111 4.0 10.0 0.02 0.06 0.04 93 1012.9
20260505171905 37 141 5.0 10.0 0.02 0.06 0.04 93 1013.0
20260505171524 36 133 5.0 11.0 0.02 0.06 0.04 92 1013.5
20260505171406 37 146 4.0 10.0 0.02 0.06 0.04 93 1013.0
20260505170905 37 18 4.0 9.0 0.02 0.06 0.04 93 1013.0
20260505170404 37 121 5.0 8.0 0.03 0.06 0.04 93 1013.0
20260505170024 37 97 4.0 11.0 0.03 0.06 0.04 93 1013.5
20260505165906 37 89 4.0 10.0 0.02 0.05 0.03 93 1013.0
20260505165405 37 161 4.0 9.0 0.02 0.05 0.03 93 1013.0
20260505164905 37 114 5.0 9.0 0.02 0.05 0.03 93 1013.0
20260505164524 36 109 5.0 11.0 0.02 0.05 0.03 92 1013.5
20260505164404 37 122 4.0 9.0 0.02 0.05 0.03 92 1013.0
20260505163905 37 161 3.0 8.0 0.02 0.05 0.03 92 1013.0
20260505163405 37 64 3.0 8.0 0.02 0.05 0.03 92 1013.0
20260505163014 37 78 2.0 10.0 0.02 0.05 0.03 92 1013.5
20260505162405 37 107 3.0 9.0 0.01 0.04 0.02 92 1013.0
20260505161905 37 126 3.0 6.0 0.01 0.04 0.02 92 1013.0
20260505161519 37 120 4.0 7.0 0.01 0.04 0.02 91 1013.6
20260505161404 38 176 2.0 6.0 0.01 0.04 0.02 92 1013.1
20260505160906 38 148 3.0 5.0 0.01 0.04 0.02 92 1013.1
20260505160407 38 110 3.0 5.0 0.00 0.03 0.01 92 1013.1
20260505153013 37 119 3.0 7.0 0.00 0.03 0.01 90 1013.6
20260505152905 38 141 4.0 6.0 0.00 0.03 0.01 90 1013.1
20260505152405 38 101 5.0 8.0 0.00 0.03 0.01 89 1013.1
20260505151904 38 156 4.0 8.0 0.00 0.03 0.01 88 1013.1
20260505151517 38 153 4.0 8.0 0.00 0.03 0.01 88 1013.6
20260505151406 38 148 3.0 6.0 0.00 0.03 0.01 89 1013.1
20260505150900 38 183 4.0 9.0 0.00 0.03 0.01 88 1013.1
20260505150400 38 150 4.0 9.0 0.00 0.03 0.01 88 1013.1
20260505124857 40 109 4.0 8.0 0.00 0.03 0.01 87 1012.1
20260505124521 39 127 4.0 9.0 0.00 0.03 0.01 87 1012.6
20260505123857 40 162 4.0 7.0 0.00 0.03 0.01 87 1012.1
20260505123354 40 69 4.0 7.0 0.00 0.03 0.01 87 1012.1
20260505123025 39 74 5.0 8.0 0.00 0.03 0.01 85 1012.5
20260505122856 40 98 3.0 6.0 0.00 0.03 0.01 86 1012.1
20260505122354 40 102 4.0 6.0 0.00 0.03 0.01 85 1011.9
20260505121853 40 77 3.0 6.0 0.00 0.03 0.01 84 1011.8
20260505121512 40 50 3.0 5.0 0.00 0.03 0.01 84 1012.2
20260505121352 40 98 2.0 4.0 0.00 0.03 0.01 85 1011.6
20260505120850 40 80 2.0 4.0 0.00 0.03 0.01 84 1011.6
20260505120351 40 94 2.0 4.0 0.00 0.03 0.01 84 1011.6
20260505120015 40 76 2.0 4.0 0.00 0.03 0.01 83 1012.0
20260505115845 41 105 2.0 5.0 0.00 0.03 0.01 83 1011.5
20260505114833 41 94 3.0 6.0 0.00 0.03 0.01 82 1011.5
20260505114518 41 123 3.0 7.0 0.00 0.03 0.01 82 1012.0
20260505114327 41 115 2.0 6.0 0.00 0.03 0.01 82 1011.4
20260505113821 41 78 1.0 4.0 0.00 0.03 0.01 83 1011.5
20260505113315 41 104 1.0 3.0 0.00 0.03 0.01 84 1011.4
20260505113022 41 110 0.0 3.0 0.00 0.03 0.01 84 1011.8
20260505112810 41 107 1.0 3.0 0.00 0.03 0.01 84 1011.3
20260505112304 41 111 1.0 3.0 0.00 0.03 0.01 83 1011.3
20260505111757 41 148 0.0 3.0 0.00 0.03 0.01 84 1011.3
20260505111534 41 150 0.0 4.0 0.00 0.03 0.01 84 1011.6
20260505111250 41 156 0.0 3.0 0.00 0.03 0.01 86 1011.3
20260505110750 41 137 0.0 3.0 0.00 0.03 0.01 87 1011.4
20260505101748 41 165 0.0 1.0 0.00 0.03 0.01 87 1011.3
20260505101524 40 165 0.0 1.0 0.00 0.03 0.01 87 1011.7
20260505101247 41 165 0.0 1.0 0.00 0.03 0.01 87 1011.4
20260505100746 41 165 0.0 2.0 0.00 0.03 0.01 87 1011.3
20260505100245 41 165 0.0 2.0 0.00 0.03 0.01 87 1011.1
20260505100029 41 165 0.0 2.0 0.00 0.03 0.01 86 1011.6
20260505095746 41 165 0.0 2.0 0.00 0.03 0.01 86 1011.1
20260505095244 41 165 1.0 2.0 0.00 0.03 0.01 86 1011.0
20260505094745 42 164 1.0 3.0 0.00 0.03 0.01 86 1011.1
20260505094515 41 165 0.0 4.0 0.00 0.03 0.01 85 1011.7
20260505094238 42 164 1.0 3.0 0.00 0.03 0.01 86 1011.1
20260505093226 42 132 0.0 2.0 0.00 0.03 0.01 84 1010.9
20260505093018 41 42 0.0 0.0 0.00 0.03 0.01 83 1011.3
20260505092720 42 14 0.0 0.0 0.00 0.03 0.01 84 1010.8
20260505092214 42 14 0.0 0.0 0.00 0.03 0.01 83 1011.0
20260505091524 42 21 0.0 1.0 0.00 0.03 0.01 82 1011.6
20260505091202 43 14 0.0 3.0 0.00 0.03 0.01 82 1011.0
20260505090656 43 14 0.0 3.0 0.00 0.03 0.01 82 1010.9
20260505090151 43 355 0.0 2.0 0.00 0.03 0.01 83 1011.0
20260505090028 43 360 0.0 3.0 0.00 0.03 0.01 82 1011.5
20260505085644 43 0 0.0 3.0 0.00 0.03 0.01 83 1011.3
20260505085140 43 335 0.0 3.0 0.00 0.03 0.01 84 1011.4
20260505084632 43 326 0.0 3.0 0.00 0.03 0.01 84 1011.5
20260505084528 43 333 0.0 3.0 0.00 0.03 0.01 83 1012.1
20260505084126 43 29 0.0 3.0 0.00 0.03 0.01 84 1011.5
20260505083115 43 44 0.0 2.0 0.00 0.03 0.01 82 1011.6
20260505083017 43 22 0.0 1.0 0.00 0.03 0.01 81 1012.1
20260505082608 44 11 0.0 2.0 0.00 0.03 0.01 81 1011.8
20260505082102 44 11 0.0 2.0 0.00 0.03 0.01 81 1011.9
20260505081557 44 359 0.0 2.0 0.00 0.03 0.01 82 1012.0
20260505081529 44 355 0.0 2.0 0.00 0.03 0.01 82 1012.4
20260505081050 44 359 0.0 2.0 0.00 0.03 0.01 83 1011.9
20260505080038 44 359 0.0 2.0 0.00 0.03 0.01 82 1011.9
20260505080024 44 346 0.0 1.0 0.00 0.03 0.01 82 1012.3
20260505075026 44 338 0.0 1.0 0.00 0.03 0.01 83 1011.9
20260505074526 44 329 0.0 3.0 0.00 0.03 0.01 82 1012.4
20260505074520 44 335 0.0 2.0 0.00 0.03 0.01 83 1011.9
20260505074015 44 322 1.0 5.0 0.00 0.03 0.01 83 1011.9
20260505073509 45 306 1.0 5.0 0.00 0.03 0.01 83 1012.0
20260505073041 44 336 0.0 5.0 0.00 0.03 0.01 83 1012.5
20260505073002 45 342 1.0 5.0 0.00 0.03 0.01 83 1012.0
20260505072456 45 308 1.0 5.0 0.00 0.03 0.01 84 1012.0
20260505071539 44 329 1.0 4.0 0.00 0.03 0.01 83 1012.5
20260505071445 45 342 1.0 4.0 0.00 0.03 0.01 84 1012.0
20260505070938 45 353 0.0 3.0 0.01 0.03 0.01 85 1012.0
20260505070432 45 341 0.0 2.0 0.01 0.03 0.01 84 1012.1
20260505070020 44 335 0.0 4.0 0.01 0.03 0.01 84 1012.7
20260505065928 45 341 1.0 4.0 0.01 0.03 0.01 84 1012.1
20260505065428 45 345 0.0 4.0 0.01 0.03 0.01 85 1012.1
20260505064526 44 5 0.0 1.0 0.01 0.03 0.01 85 1012.6
20260505064430 45 1 0.0 1.0 0.01 0.03 0.01 85 1012.0
20260505063928 45 335 0.0 1.0 0.01 0.03 0.01 85 1012.0
20260505063428 45 352 0.0 2.0 0.01 0.03 0.01 85 1012.0
20260505063028 44 336 0.0 4.0 0.01 0.03 0.01 84 1012.7
20260505062928 45 342 0.0 4.0 0.01 0.03 0.01 84 1012.1
20260505062428 45 326 0.0 4.0 0.01 0.03 0.01 84 1012.0
20260505061930 45 23 0.0 3.0 0.01 0.03 0.01 83 1011.9
20260505061532 45 27 0.0 3.0 0.01 0.03 0.01 82 1012.6
20260505061428 46 1 1.0 5.0 0.01 0.03 0.01 82 1012.1
20260505060928 46 39 2.0 5.0 0.00 0.02 0.00 81 1012.2
20260505060428 46 347 1.0 5.0 0.00 0.02 0.00 80 1012.4
20260505060028 46 324 1.0 4.0 0.00 0.02 0.00 78 1013.0
20260505055929 46 306 1.0 4.0 0.00 0.02 0.02 78 1012.5
20260505055427 46 41 1.0 5.0 0.00 0.02 0.02 77 1012.5
20260505054533 46 349 0.0 6.0 0.00 0.02 0.02 76 1013.1
20260505054421 47 356 1.0 6.0 0.00 0.02 0.02 76 1012.6
20260505053916 47 337 1.0 4.0 0.00 0.02 0.02 75 1012.5
20260505053410 47 343 1.0 4.0 0.00 0.02 0.02 75 1012.4
20260505053034 47 333 0.0 4.0 0.00 0.02 0.02 74 1013.0
20260505052904 47 350 1.0 4.0 0.00 0.02 0.02 74 1012.5
20260505051851 47 349 2.0 5.0 0.00 0.02 0.02 72 1012.5
20260505051536 46 331 1.0 5.0 0.00 0.02 0.02 71 1013.0
20260505051346 47 334 1.0 5.0 0.00 0.02 0.02 72 1012.5
20260505050841 47 359 1.0 5.0 0.00 0.02 0.02 73 1012.5
20260505050334 47 25 0.0 4.0 0.00 0.02 0.02 74 1012.4
20260505041740 47 236 0.0 2.0 0.00 0.02 0.02 73 1011.9
20260505041525 47 342 0.0 2.0 0.00 0.02 0.02 71 1012.4
20260505041234 47 348 0.0 2.0 0.00 0.02 0.02 71 1011.5
20260505040728 47 342 0.0 4.0 0.00 0.02 0.02 71 1011.4
20260505040223 47 329 1.0 4.0 0.00 0.02 0.02 71 1011.3
20260505040021 47 319 0.0 4.0 0.00 0.02 0.02 70 1011.9
20260505035716 47 352 1.0 4.0 0.00 0.02 0.02 71 1011.3
20260505035210 48 340 1.0 5.0 0.00 0.02 0.02 71 1011.4
20260505034705 48 342 2.0 6.0 0.00 0.02 0.02 71 1011.4
20260505034519 47 346 0.0 8.0 0.00 0.02 0.02 70 1012.2
20260505034202 48 48 2.0 7.0 0.00 0.02 0.02 70 1011.5
20260505033702 48 335 2.0 7.0 0.00 0.02 0.02 70 1011.5
20260505033202 48 311 2.0 7.0 0.00 0.02 0.02 70 1011.4
20260505033007 47 352 0.0 8.0 0.00 0.02 0.02 70 1012.2
20260505032701 48 333 2.0 7.0 0.00 0.02 0.02 69 1011.6
20260505032201 48 332 2.0 6.0 0.00 0.02 0.02 70 1011.4
20260505031702 47 319 1.0 5.0 0.00 0.02 0.02 71 1011.1
20260505031505 47 350 1.0 9.0 0.00 0.02 0.02 71 1011.7
20260505031201 47 53 1.0 8.0 0.00 0.02 0.02 72 1010.9
20260505030701 48 306 1.0 8.0 0.00 0.02 0.02 71 1010.9
20260505030022 47 319 1.0 9.0 0.00 0.02 0.02 71 1011.4
20260505025202 48 320 3.0 7.0 0.00 0.02 0.02 71 1011.0
20260505024513 47 331 2.0 9.0 0.01 0.02 0.02 70 1011.7
20260505024203 48 340 2.0 8.0 0.01 0.02 0.02 71 1011.1
20260505023159 48 334 2.0 8.0 0.02 0.02 0.02 70 1011.0
20260505023020 48 346 2.0 9.0 0.02 0.02 0.02 69 1011.5
20260505022700 48 309 2.0 8.0 0.02 0.02 0.02 71 1011.0
20260505022200 48 359 3.0 9.0 0.02 0.02 0.02 70 1010.9
20260505021655 49 8 3.0 9.0 0.02 0.02 0.02 70 1010.9
20260505021504 48 304 3.0 10.0 0.02 0.02 0.02 68 1011.4
20260505021147 49 345 3.0 9.0 0.02 0.02 0.02 69 1010.9
20260505020642 49 359 3.0 12.0 0.02 0.02 0.02 69 1011.1
20260505020135 49 342 3.0 12.0 0.02 0.02 0.02 69 1011.4
20260505020008 49 337 3.0 13.0 0.02 0.02 0.02 69 1011.9
20260505015628 49 284 3.0 11.0 0.02 0.02 0.02 68 1011.3
20260505015122 50 359 3.0 11.0 0.02 0.02 0.02 67 1011.0
20260505014616 50 27 3.0 9.0 0.01 0.01 0.01 64 1010.8
20260505014512 50 355 3.0 13.0 0.01 0.01 0.01 64 1011.4
20260505014110 50 354 3.0 12.0 0.01 0.01 0.01 63 1010.9
20260505013058 51 331 2.0 7.0 0.00 0.00 0.00 63 1011.0
20260505013015 50 342 2.0 8.0 0.00 0.00 0.00 61 1011.5
20260505012552 51 326 3.0 6.0 0.00 0.00 0.00 60 1011.0
20260505012047 52 49 3.0 12.0 0.00 0.00 0.00 59 1010.9
20260505011540 54 46 3.0 12.0 0.00 0.00 0.00 54 1010.9
20260505011524 53 338 3.0 13.0 0.00 0.00 0.00 52 1011.5
20260505011034 54 302 4.0 16.0 0.00 0.00 0.00 50 1010.4
20260505010527 55 262 5.0 16.0 0.00 0.00 0.00 48 1010.2
20260505010022 56 53 4.0 12.0 0.00 0.00 0.00 42 1010.0
20260505010008 56 55 4.0 13.0 0.00 0.00 0.00 42 1010.7
20260505005516 57 314 4.0 11.0 0.00 0.00 0.00 41 1010.0
20260505005010 57 342 3.0 11.0 0.00 0.00 0.00 38 1009.9
20260505004509 58 30 4.0 12.0 0.00 0.00 0.00 37 1010.3
20260505004505 58 356 3.0 11.0 0.00 0.00 0.00 37 1009.7